Cloud_Cover
5 4 0 0 0 4 37 65 12 32 65 41 80 88 33 59 45 44 27 100 100 100 100 100 100 100 100 100 100 100 100 100 100 100 100 100 100 100 100 100 100 100 100
1 5 0 0 0 10 57 100 100 100 88 96 100 100 100 100 100 86 100 100 100 100 100 100 100 100 100 100 100 100 100 100 100 100 100 100 100 100 100 100 100 100 100
0 0 0 0 0 2 94 100 100 100 100 100 96 100 100 90 100 100 100 100 100 100 100 100 100 100 100 100 100 100 100 100 100 100 100 100 100 100 100 100 100 100 100
1 2 4 0 0 0 94 100 100 100 48 84 96 91 96 100 100 100 100 100 100 100 100 100 100 100 100 100 100 100 100 100 100 100 100 100 100 100 100 100 100 100 100
5 5 4 0 0 13 56 100 100 100 100 98 100 100 100 100 97 100 100 100 100 100 100 100 100 100 100 100 100 100 100 100 100 100 100 100 100 100 100 100 100 100 100
4 5 34 0 12 24 58 100 100 100 100 100 100 100 100 100 100 100 100 100 100 100 100 100 100 100 100 100 100 100 100 100 100 100 100 100 100 100 100 100 100 100 100
54 12 82 6 28 70 100 100 100 100 100 100 100 100 100 100 100 87 95 100 100 100 100 100 100 100 100 100 100 100 100 100 100 100 100 100 100 100 100 100 100 100 100
26 35 10 10 95 94 98 76 92 96 58 98 39 100 100 100 100 87 54 74 91 100 100 100 100 100 100 100 100 100 100 100 100 100 100 100 100 100 100 100 100 100 100
51 12 33 100 100 76 80 92 54 99 43 10 59 100 100 100 100 100 92 99 97 95 100 96 90 100 100 100 100 100 100 100 100 100 100 100 100 100 100 100 100 100 100
100 85 85 100 100 100 85 100 97 54 6 22 86 100 100 100 92 100 97 91 29 39 82 78 89 100 100 100 99 94 97 100 100 100 100 100 100 100 100 100 100 100 100
100 100 100 100 100 100 100 93 69 34 51 42 40 100 100 98 100 100 100 56 68 100 88 100 100 100 100 100 96 99 100 100 100 100 100 100 100 100 97 77 100 100 100
100 100 100 100 97 92 87 100 98 86 99 98 61 100 100 100 100 100 100 96 78 95 100 92 100 100 100 100 100 100 100 100 88 98 100 100 100 100 80 83 86 96 76
100 100 100 100 100 100 100 100 100 100 100 100 100 100 100 100 100 100 100 92 85 81 74 100 96 100 100 100 100 61 33 10 6 6 3 0 0 0 0 0 4 5 5
100 100 100 100 100 100 100 100 100 100 100 100 100 100 100 100 100 100 100 98 100 86 78 83 30 0 0 0 0 0 0 0 0 0 0 0 0 1 3 3 4 5 18
100 100 100 100 100 100 100 100 100 100 90 100 100 100 84 99 97 95 67 73 8 0 0 0 0 0 0 0 0 0 0 0 0 0 0 0 0 0 0 0 0 0 0
100 100 100 100 96 97 89 99 93 84 73 70 57 42 29 11 6 4 0 0 0 0 0 0 0 0 0 0 0 0 0 0 0 0 0 0 0 0 0 0 0 0 0
100 81 83 31 7 27 66 53 23 5 5 5 5 5 20 5 5 5 5 5 1 5 5 5 5 5 3 4 5 5 3 2 0 0 0 0 0 0 0 0 0 0 0
6 5 9 5 6 5 5 5 5 5 5 25 78 100 100 76 5 5 5 6 5 8 5 6 5 5 5 5 5 5 5 1 3 0 0 0 0 0 0 0 0 0 0
100 9 4 5 5 5 5 27 23 55 10 90 100 91 69 59 81 98 84 58 89 82 16 42 47 10 5 5 5 5 5 2 0 0 0 0 0 0 0 0 0 0 0
99 100 79 5 17 76 66 100 100 94 100 86 97 68 95 100 76 56 71 96 100 100 100 100 71 5 5 5 5 5 0 0 0 0 0 0 0 0 0 0 0 0 0
100 86 54 11 74 8 100 100 100 81 77 90 100 100 100 100 100 100 100 100 100 100 100 76 33 6 5 5 5 5 1 0 0 0 0 5 1 0 0 0 0 0 0
63 65 58 5 25 28 100 90 78 72 87 77 69 75 95 100 100 100 100 92 91 41 6 24 77 98 7 5 5 0 0 0 0 0 2 5 1 0 0 0 0 0 0
91 78 93 100 82 76 100 100 91 96 100 100 100 100 100 100 100 100 100 94 39 36 92 100 88 10 5 3 0 0 0 0 0 0 0 0 0 0 0 0 0 0 0
100 97 100 100 90 61 93 100 100 100 100 100 100 100 100 100 100 100 100 100 100 79 45 93 18 5 2 0 0 0 0 0 0 0 0 0 0 0 0 0 0 0 0
100 100 100 99 99 80 63 99 100 100 100 100 100 100 100 100 100 100 100 90 66 63 5 5 5 2 0 0 0 0 0 0 0 0 0 0 0 0 0 0 0 0 4
100 100 100 92 100 81 92 83 90 100 100 100 100 99 100 100 100 100 100 100 100 48 5 4 0 0 0 0 0 0 0 0 0 0 0 0 0 0 0 0 0 0 0